#timestamp,LO_Frequency,Hit,StdDev 
1562169615.5,286047005.6,N
1562169635.4,286047010.3,N
1562169655.2,286047013.4,N
1562169675.0,286047012.2,N
1562169675.9,286047012.2,N
1562169695.8,286047010.4,N
1562169715.6,286047008.8,N
1562169735.4,286047007.7,N
1562169755.3,286047009.1,N
1562169775.1,286047007.5,N
1562169795.9,286047007.6,N
1562169815.7,286047006.5,N
1562169835.5,286047008.3,N
1562169855.4,286047010.5,N
1562169875.2,286047013.0,Y
1562169895.1,286047016.3,P
1562169896.0,286047016.3,P
1562169915.8,286047024.7,P
1562169935.6,286047030.0,Y
1562169955.5,286047009.9,P
1562169975.3,286047006.1,N
1562169995.1,286047006.6,N
1562170015.9,286047001.8,N
1562170035.7,286046996.6,N
1562170055.6,286046996.7,N
1562170075.4,286046996.0,N
1562170095.2,286046992.2,N
1562170115.1,286046992.5,N
1562170116.0,286046992.5,N
1562170135.8,286046994.4,N
1562170155.7,286046994.6,N
1562170175.5,286046994.5,N
1562170195.3,286046994.2,N
1562170215.2,286046994.2,N
1562170235.9,286046994.2,N
1562170255.7,286046998.7,N
1562170275.6,286047006.6,N
1562170295.4,286047007.9,N
1562170315.3,286047006.9,N
1562170335.1,286047008.2,N
1562170336.0,286047008.2,N
1562170355.8,286047006.1,N
1562170375.7,286047007.7,N
1562170395.5,286047010.5,N
1562170415.3,286047008.6,N
1562170435.2,286047009.5,N
1562170455.0,286047011.1,N
1562170455.9,286047011.1,N
1562170475.8,286047009.4,N
1562170495.6,286047013.6,N
1562170515.4,286047012.5,N
1562170535.3,286047015.3,N
1562170555.1,286047012.0,N
1562170575.8,286047007.9,N
1562170595.7,286047005.0,N
1562170615.5,286047003.3,N
1562170635.4,286047006.9,N
1562170655.2,286047002.9,N
1562170675.0,286047002.3,N
1562170675.9,286047002.3,N
1562170695.8,286046999.1,N
1562170715.6,286047002.1,N
1562170735.4,286047005.2,N
1562170755.3,286047004.1,N
1562170775.1,286047003.3,N
1562170795.9,286047004.3,N
1562170815.7,286047001.9,N
1562170835.5,286047002.9,N
1562170855.4,286047007.2,N
1562170875.2,286047008.6,N
1562170895.0,286047009.7,N
1562170895.9,286047009.7,N
1562170915.8,286047009.9,N
1562170935.6,286047008.4,N
1562170955.5,286047012.0,N
1562170975.3,286047016.6,Y
1562170995.1,286047013.9,P
1562171015.9,286047012.8,P
1562171035.7,286047012.2,P
1562171055.6,286047012.4,Y
1562171075.4,286046996.4,P
1562171095.2,286046997.2,N
1562171115.1,286046998.7,N
1562171116.0,286046998.7,N
1562171135.8,286046996.0,N
1562171155.7,286046991.8,N
1562171175.5,286046992.5,N
1562171195.3,286046990.9,N
1562171215.2,286046991.0,N
1562171235.0,286046994.1,N
1562171235.9,286046994.1,N
1562171255.7,286046996.1,N
1562171275.6,286046997.3,N
1562171295.4,286047002.5,N
1562171315.3,286047006.2,N
1562171335.1,286047008.2,N
1562171355.8,286047003.1,N
1562171375.7,286047003.1,N
1562171395.5,286047005.2,N
1562171415.4,286047004.3,N
1562171435.2,286047002.8,N
1562171455.0,286047003.4,N
1562171455.9,286047003.4,N
1562171475.8,286047005.0,N
1562171495.6,286047003.7,N
1562171515.5,286047002.4,N
1562171535.3,286046999.7,N
1562171555.1,286047003.5,N
1562171575.9,286047003.9,N
1562171595.7,286047005.4,N
1562171615.5,286047003.1,N
1562171635.4,286047005.6,N
1562171655.2,286047006.7,N
1562171675.1,286047009.8,N
1562171676.0,286047009.8,N
1562171695.8,286047012.1,N
1562171715.6,286047010.0,N
1562171735.5,286047012.0,N
1562171755.3,286047009.4,N
1562171775.2,286047014.4,Y
1562171795.9,286047014.9,P
1562171815.7,286047013.0,N
1562171835.6,286047013.3,N
1562171855.4,286047013.4,Y
1562171875.2,286047003.4,P
1562171895.1,286047006.3,N
1562171896.0,286047006.3,N
1562171915.8,286047008.7,Y
1562171935.7,286047004.5,P
1562171955.5,286047003.6,P
1562171975.3,286047003.4,N
1562171995.2,286047007.4,Y
1562172015.0,286047004.1,P
1562172015.9,286047004.1,P
1562172035.8,286047004.9,P
1562172055.6,286047005.0,Y
1562172075.4,286047000.0,P
1562172095.3,286046995.7,N
1562172115.1,286046990.2,N
1562172135.9,286046991.6,N
1562172155.7,286046987.1,N
1562172175.5,286046991.8,N
1562172195.4,286046992.4,N
1562172215.2,286046988.5,N
1562172235.0,286046992.3,N
1562172236.0,286046992.3,N
1562172255.8,286046992.1,N
1562172275.6,286046990.8,N
1562172295.5,286046988.5,N
1562172315.3,286046991.3,N
1562172335.1,286046991.8,N
1562172355.9,286046992.1,N
1562172375.7,286046993.9,N
1562172395.6,286046996.2,N
1562172415.4,286046993.6,N
1562172435.2,286046996.1,N
1562172455.1,286046994.0,N
1562172456.0,286046994.0,N
1562172475.8,286046996.1,N
1562172495.7,286046997.1,N
1562172515.5,286046997.3,N
1562172535.3,286046997.1,N
1562172555.2,286046999.6,N
1562172575.9,286046995.9,N
1562172595.7,286046995.9,N
1562172615.6,286046996.0,N
1562172635.4,286046997.2,N
1562172655.3,286047000.8,N
1562172675.1,286047002.1,N
1562172676.0,286047002.1,N
1562172695.8,286047003.6,N
1562172715.7,286047008.5,N
1562172735.5,286047012.8,N
1562172755.4,286047023.6,Y
1562172775.2,286047022.5,P
1562172795.0,286047020.2,N
1562172795.9,286047020.2,N
1562172815.8,286047018.4,N
1562172835.6,286047013.4,N
1562172855.4,286047012.0,N
1562172875.3,286047012.6,N
1562172895.1,286047011.9,N
1562172915.9,286047012.7,N
1562172935.7,286047016.3,N
1562172955.5,286047018.6,N
1562172975.4,286047019.8,Y
1562172995.2,286047006.3,P
1562173045.1,286046996.6,E
1562173055.0,286046996.6,N
1562173055.9,286046996.6,P
1562173075.7,286046996.9,P
1562173095.6,286046998.9,Y
1562173115.4,286047003.4,P
1562173135.3,286047003.9,N
1562173155.1,286047003.5,N
1562173175.8,286047005.3,N
1562173195.7,286047006.6,N
